Weather reports worldwide

Advertisment
Valladolid, Spain (8141): temperature & dewpoint: 17.05.2019 14:00:00 - 23.05.2019 14:00:00 (CEST)Valladolid, Spain (8141): wind speed: 17.05.2019 14:00:00 - 23.05.2019 14:00:00 (CEST)Valladolid, Spain (8141): wind direction: 17.05.2019 14:00:00 - 23.05.2019 14:00:00 (CEST)Valladolid, Spain (8141): reduced air pressure: 17.05.2019 14:00:00 - 23.05.2019 14:00:00 (CEST)Valladolid, Spain (8141): visibility: 17.05.2019 14:00:00 - 23.05.2019 14:00:00 (CEST)Valladolid, Spain (8141): precipitation: 17.05.2019 14:00:00 - 23.05.2019 14:00:00 (CEST)
Date & Time tt [°C] td [°C] ff [km/h] ff [kn] dd ppp [hPa] vv [km] rr [mm]
23.05.2019 14:00:00 - - - - - - - -
23.05.2019 13:00:00 22,9 10,0 4 2 SE 1014,4 20 0,0
23.05.2019 12:00:00 20,2 9,1 5 3 W 1016,0 20 0,0
23.05.2019 11:00:00 16,7 8,4 5 3 S 1016,9 25 -
23.05.2019 10:00:00 15,2 7,2 5 3 S 1017,4 20 0,0
23.05.2019 09:00:00 14,1 6,0 4 2 SSE 1017,6 20 0,0
23.05.2019 08:00:00 13,6 5,0 4 2 SSE 1017,3 30 -
23.05.2019 07:00:00 12,8 5,9 2 1 ESE 1017,3 20 0,0
23.05.2019 06:00:00 13,0 5,6 2 1 NNW 1017,2 20 0,0
23.05.2019 05:00:00 13,3 5,7 4 2 WNW 1016,9 25 -
23.05.2019 04:00:00 15,4 5,3 4 2 W 1016,4 20 0,0
23.05.2019 03:00:00 16,4 4,7 5 3 W 1016,5 20 0,0
23.05.2019 02:00:00 17,4 3,6 4 2 E 1016,0 25 -
23.05.2019 01:00:00 17,8 3,6 4 2 WSW 1016,0 20 0,0
23.05.2019 00:00:00 18,4 2,6 4 2 W 1015,8 20 0,0
22.05.2019 23:00:00 19,5 3,6 5 3 W 1015,2 30 -
22.05.2019 22:00:00 21,6 3,3 4 2 W 1013,9 20 0,0
22.05.2019 21:00:00 23,8 1,4 4 2 WNW 1013,1 20 0,0
22.05.2019 20:00:00 25,9 1,2 5 3 WNW 1012,4 30 -
22.05.2019 19:00:00 26,6 1,8 8 4 W 1012,2 20 0,0
22.05.2019 18:00:00 26,6 -0,5 8 4 W 1012,5 20 0,0
22.05.2019 17:00:00 26,5 1,0 9 5 W 1012,7 30 -
22.05.2019 16:00:00 26,3 1,5 5 3 NW 1012,9 20 0,0
22.05.2019 15:00:00 25,6 2,3 5 3 S 1013,7 20 0,0
22.05.2019 14:00:00 24,6 2,1 5 3 SSW 1014,7 30 -
22.05.2019 13:00:00 22,9 2,4 4 2 SSE 1015,4 20 0,0
22.05.2019 12:00:00 19,6 6,0 4 2 N 1016,6 20 0,0
22.05.2019 11:00:00 16,5 6,0 4 2 NE 1017,5 25 -
22.05.2019 10:00:00 14,1 5,7 4 2 NE 1018,4 20 0,0
22.05.2019 09:00:00 10,8 5,1 4 2 N 1019,2 20 0,0
22.05.2019 08:00:00 8,8 4,8 5 3 N 1019,7 15 -
22.05.2019 07:00:00 8,4 4,8 5 3 N 1019,5 20 0,0
22.05.2019 06:00:00 9,0 5,0 8 4 N 1019,1 20 0,0
22.05.2019 05:00:00 9,7 5,3 4 2 NNW 1018,6 30 -
22.05.2019 04:00:00 10,5 5,5 5 3 N 1018,3 20 0,0
22.05.2019 03:00:00 11,3 5,4 4 2 N 1018,0 20 0,0
22.05.2019 02:00:00 12,1 4,8 4 2 NW 1017,8 20 -
22.05.2019 01:00:00 14,3 4,6 4 2 N 1017,0 20 0,0
22.05.2019 00:00:00 16,0 3,4 4 2 N 1016,4 20 0,0
21.05.2019 23:00:00 17,5 2,6 8 4 ENE 1015,6 25 -
21.05.2019 22:00:00 19,0 2,3 5 3 ENE 1014,3 20 0,0
21.05.2019 21:00:00 20,5 1,8 8 4 NNE 1013,2 20 0,0
21.05.2019 20:00:00 22,2 1,8 8 4 NE 1011,9 30 -
21.05.2019 19:00:00 23,0 1,9 5 3 NE 1011,6 20 0,0
21.05.2019 18:00:00 23,3 2,2 5 3 NE 1011,7 20 0,0
21.05.2019 17:00:00 22,5 2,0 4 2 N 1012,1 30 -
21.05.2019 16:00:00 21,5 1,7 5 3 NNE 1012,6 20 0,0
21.05.2019 15:00:00 21,8 2,0 8 4 E 1012,5 20 0,0
21.05.2019 14:00:00 21,7 1,3 8 4 E 1012,8 30 -
21.05.2019 13:00:00 19,5 3,2 8 4 ENE 1013,9 20 0,0
21.05.2019 12:00:00 17,9 5,5 4 2 E 1014,4 20 0,0
21.05.2019 11:00:00 15,2 5,4 5 3 NE 1015,3 30 -
21.05.2019 10:00:00 12,2 5,4 5 3 NE 1016,2 20 0,0
21.05.2019 09:00:00 10,4 5,6 4 2 NNE 1016,5 20 0,0
21.05.2019 08:00:00 8,5 5,4 4 2 NNW 1016,5 20 -
21.05.2019 07:00:00 8,8 5,4 4 2 NNW 1015,8 20 0,0
21.05.2019 06:00:00 9,3 5,7 5 3 N 1015,3 20 0,0
21.05.2019 05:00:00 9,6 5,8 5 3 N 1015,2 20 -
21.05.2019 04:00:00 10,1 5,5 5 3 N 1014,9 20 0,0
21.05.2019 03:00:00 10,6 4,9 8 4 N 1014,8 20 0,0
21.05.2019 02:00:00 11,9 3,1 4 2 NNW 1014,5 20 -
21.05.2019 01:00:00 13,1 1,7 4 2 E 1014,2 20 0,0
21.05.2019 00:00:00 13,5 1,2 4 2 WNW 1013,7 20 0,0
20.05.2019 23:00:00 14,3 0,5 5 3 W 1013,2 25 -
20.05.2019 22:00:00 16,4 0,5 5 3 W 1011,7 20 0,0
20.05.2019 21:00:00 18,4 -0,5 5 3 NW 1010,7 20 0,0
20.05.2019 20:00:00 19,2 -0,3 5 3 W 1010,3 30 -
20.05.2019 19:00:00 20,0 -2,4 4 2 W 1010,2 20 0,0
20.05.2019 18:00:00 20,0 -1,2 5 3 SW 1010,2 20 0,0
20.05.2019 17:00:00 19,7 0,2 8 4 W 1010,3 30 -
20.05.2019 16:00:00 19,8 -0,8 4 2 S 1010,5 20 0,0
20.05.2019 15:00:00 19,3 -1,2 5 3 S 1011,0 20 0,0
20.05.2019 14:00:00 17,8 -0,5 8 4 W 1011,9 30 -
20.05.2019 13:00:00 17,9 2,2 8 4 SW 1012,1 20 0,0
20.05.2019 12:00:00 15,3 2,8 4 2 NNE 1012,9 20 0,0
20.05.2019 11:00:00 12,7 2,8 5 3 E 1014,1 30 -
20.05.2019 10:00:00 10,2 3,5 4 2 E 1014,8 20 0,0
20.05.2019 09:00:00 7,6 3,3 4 2 NE 1015,4 20 0,0
20.05.2019 08:00:00 5,7 3,0 4 2 N 1015,6 20 -
20.05.2019 07:00:00 4,7 2,6 4 2 N 1015,7 20 0,0
20.05.2019 06:00:00 5,1 2,6 4 2 NNW 1015,4 20 0,0
20.05.2019 05:00:00 5,8 2,8 4 2 N 1015,1 20 -
20.05.2019 04:00:00 6,8 3,0 4 2 N 1014,9 20 0,0
20.05.2019 03:00:00 7,0 3,2 4 2 N 1015,3 20 0,0
20.05.2019 02:00:00 8,1 3,4 5 3 N 1015,3 20 -
20.05.2019 01:00:00 9,4 3,4 5 3 NNE 1014,5 20 0,0
20.05.2019 00:00:00 10,5 3,7 9 5 ENE 1014,2 20 0,0
19.05.2019 23:00:00 11,8 3,5 9 5 ENE 1013,6 20 -
19.05.2019 22:00:00 13,9 3,1 8 4 NE 1011,9 20 0,0
19.05.2019 21:00:00 16,1 -4,5 4 2 NNW 1010,9 20 0,0
19.05.2019 20:00:00 17,0 -3,7 4 2 WNW 1010,2 30 -
19.05.2019 19:00:00 18,5 -3,6 5 3 NNW 1009,7 20 0,0
19.05.2019 18:00:00 17,6 -2,7 4 2 ENE 1010,3 20 0,0
19.05.2019 17:00:00 17,3 -2,4 8 4 ENE 1010,9 30 -
19.05.2019 16:00:00 18,2 -1,1 8 4 SW 1011,0 7 0,0
19.05.2019 15:00:00 17,3 -0,9 4 2 WSW 1011,4 20 0,0
19.05.2019 14:00:00 16,0 -0,2 5 3 W 1012,1 30 -
19.05.2019 13:00:00 15,5 0,5 5 3 WNW 1012,4 20 0,0
19.05.2019 12:00:00 13,2 1,2 9 5 NW 1013,3 20 0,0
19.05.2019 11:00:00 12,3 2,2 8 4 NW 1013,5 30 -
19.05.2019 10:00:00 10,1 2,7 5 3 N 1014,2 20 0,0
19.05.2019 09:00:00 7,9 2,1 2 1 N 1014,7 20 0,0
19.05.2019 08:00:00 6,0 1,9 4 2 NW 1015,3 25 -
19.05.2019 07:00:00 5,8 1,9 2 1 WSW 1015,3 20 0,0
19.05.2019 06:00:00 6,4 2,1 4 2 WNW 1014,8 20 0,0
19.05.2019 05:00:00 6,0 1,9 4 2 W 1014,8 20 -
19.05.2019 04:00:00 6,1 2,0 8 4 NW 1014,6 20 0,0
19.05.2019 03:00:00 6,5 2,2 5 3 NNW 1014,7 20 0,0
19.05.2019 02:00:00 7,6 2,1 9 5 NW 1014,6 20 -
19.05.2019 01:00:00 7,7 2,0 8 4 NW 1014,6 20 0,0
19.05.2019 00:00:00 9,1 1,7 11 6 NW 1014,0 20 0,0
18.05.2019 23:00:00 9,6 1,7 8 4 WNW 1013,5 20 -
18.05.2019 22:00:00 11,1 1,9 9 5 NW 1012,5 20 0,0
18.05.2019 21:00:00 13,1 1,1 11 6 W 1011,6 20 0,0
18.05.2019 20:00:00 13,7 0,3 16 9 NNW 1011,1 30 -
18.05.2019 19:00:00 14,9 0,7 8 4 NNW 1010,3 20 0,0
18.05.2019 18:00:00 15,0 1,1 9 5 WNW 1010,3 20 0,0
18.05.2019 17:00:00 14,2 -1,1 15 8 NW 1010,6 30 -
18.05.2019 16:00:00 14,8 -0,5 15 8 WNW 1010,3 20 0,0
18.05.2019 15:00:00 16,5 -2,6 13 7 NW 1009,7 20 0,0
18.05.2019 14:00:00 15,0 -0,4 11 6 NW 1010,5 30 -
18.05.2019 13:00:00 14,3 -0,2 11 6 NW 1011,0 20 0,0
18.05.2019 12:00:00 13,5 0,5 9 5 WNW 1011,3 20 0,0
18.05.2019 11:00:00 11,3 1,0 11 6 NW 1012,2 30 -
18.05.2019 10:00:00 8,4 1,3 11 6 WSW 1013,1 20 0,0
18.05.2019 09:00:00 5,6 0,4 9 5 SW 1014,1 20 0,0
18.05.2019 08:00:00 4,3 0,1 8 4 SSW 1014,3 20 -
18.05.2019 07:00:00 4,3 0,1 8 4 SW 1014,2 20 0,0
18.05.2019 06:00:00 4,3 0,1 4 2 SW 1013,9 20 0,0
18.05.2019 05:00:00 4,3 -0,1 5 3 W 1014,0 20 -
18.05.2019 04:00:00 4,9 0,3 9 5 WNW 1014,0 20 0,0
18.05.2019 03:00:00 5,6 0,8 11 6 WNW 1014,2 20 0,0
18.05.2019 02:00:00 6,5 1,0 5 3 NW 1013,8 20 -
18.05.2019 01:00:00 7,5 0,9 13 7 NW 1013,5 20 0,0
18.05.2019 00:00:00 8,5 1,2 15 8 NW 1013,2 20 0,0
17.05.2019 23:00:00 9,7 1,3 13 7 NW 1012,6 25 -
17.05.2019 22:00:00 11,3 0,1 15 8 NW 1011,4 20 0,0
17.05.2019 21:00:00 12,9 0,3 16 9 NW 1010,4 20 0,0
17.05.2019 20:00:00 14,9 -0,4 13 7 NW 1009,2 30 -
17.05.2019 19:00:00 16,9 -0,4 15 8 NW 1008,4 20 0,0
17.05.2019 18:00:00 17,0 -0,3 16 9 NW 1008,3 20 0,0
17.05.2019 17:00:00 15,8 0,7 13 7 NW 1008,9 30 -
17.05.2019 16:00:00 16,2 1,1 15 8 NW 1009,2 20 0,0
17.05.2019 15:00:00 16,9 1,3 13 7 WNW 1009,2 20 0,0
17.05.2019 14:00:00 15,0 2,2 15 8 NNW 1010,1 30 -

tt = temperature
td = dewpoint
ff = wind speed
dd = wind direction
ppp = reduced air pressure
vv = visibility
rr = precipitation

Next stations